Weather History for EGNX - July, 2013

Change the Weather History Date:

Friday, July 19, 2013

  Actual Average Record
Temperature  
Mean Temperature 70 °F -  
Max Temperature 82 °F 68 °F 91 °F (2006)
Min Temperature 59 °F 53 °F 50 °F (2001)
Cooling Degree Days 6    
Growing Degree Days 20 (Base 50)    
Moisture  
Dew Point 56 °F    
Average Humidity 62    
Maximum Humidity 83    
Minimum Humidity 42    
Precipitation  
Precipitation 0.00 in - - ()
Sea Level Pressure  
Sea Level Pressure 30.31 in    
Wind  
Wind Speed 6 mph ()    
Max Wind Speed 15 mph    
Max Gust Speed -    
Averages and records for this station are not official NWS values.
T = Trace of Precipitation, MM = Missing Value Source: Averaged Metar Reports

Daily Weather History Graph

Daily Weather History Graph

Search for Another Location

Airport or City:

Trip Planner

Search our weather history database for the weather conditions in past years. The results will help you decide how hot, cold, wet, or windy it might be!

Date:

Astronomy

Jul. 19, 2013 Rise Set
Actual Time 5:04 AM BST 9:18 PM BST
Civil Twilight 4:18 AM BST 10:03 PM BST
Nautical Twilight 3:09 AM BST 11:11 PM BST
Astronomical Twilight 1:44 AM BST 12:39 AM BST
Moon 6:03 PM BST (7/19) 1:36 AM BST (7/19)
Length of Visible Light 17h 45m
Length of Day
16h 13m
Waxing Gibbous, 84% of the Moon is Illuminated
Jul 19
Waxing Gibbous
Jul 22
Full
Jul 29
Last Quarter
Aug 6
New
Aug 14
First Quarter

Hourly Weather History & Observations

Time (BST) Temp. Heat Index Dew Point Humidity Pressure Visibility Wind Dir Wind Speed Gust Speed Precip Events Conditions
12:20 AM 64.4 °F - 53.6 °F 68% 30.36 in - East 4.6 mph - N/A   Clear
12:50 AM 62.6 °F - 53.6 °F 72% 30.33 in - ENE 5.8 mph - N/A   Clear
1:20 AM 62.6 °F - 53.6 °F 72% 30.33 in - ENE 4.6 mph - N/A   Clear
1:50 AM 62.6 °F - 53.6 °F 72% 30.33 in - ENE 4.6 mph - N/A   Clear
2:20 AM 62.6 °F - 53.6 °F 72% 30.33 in - ENE 4.6 mph - N/A   Clear
2:50 AM 60.8 °F - 53.6 °F 77% 30.33 in - ENE 3.5 mph - N/A   Clear
3:20 AM 62.6 °F - 53.6 °F 72% 30.33 in - East 4.6 mph - N/A   Clear
3:50 AM 60.8 °F - 53.6 °F 77% 30.33 in - East 4.6 mph - N/A   Clear
4:20 AM 59.0 °F - 53.6 °F 82% 30.33 in - East 4.6 mph - N/A   Clear
4:50 AM 59.0 °F - 53.6 °F 82% 30.33 in - Variable 3.5 mph - N/A   Clear
5:20 AM 59.0 °F - 53.6 °F 82% 30.33 in - Variable 3.5 mph - N/A   Clear
5:50 AM 59.0 °F - 53.6 °F 82% 30.33 in - ESE 3.5 mph - N/A   Clear
6:20 AM 60.8 °F - 53.6 °F 77% 30.33 in - ENE 3.5 mph - N/A   Clear
6:50 AM 62.6 °F - 53.6 °F 72% 30.33 in - Variable 3.5 mph - N/A   Clear
7:20 AM 62.6 °F - 55.4 °F 77% 30.33 in - East 3.5 mph - N/A   Clear
7:50 AM 66.2 °F - 55.4 °F 68% 30.33 in - Variable 3.5 mph - N/A   Clear
8:20 AM 68.0 °F - 55.4 °F 64% 30.33 in - Variable 3.5 mph - N/A   Clear
8:50 AM 69.8 °F - 55.4 °F 60% 30.36 in - East 4.6 mph - N/A   Clear
9:20 AM 71.6 °F - 55.4 °F 57% 30.36 in - Variable 4.6 mph - N/A   Clear
9:50 AM 71.6 °F - 55.4 °F 57% 30.36 in - ENE 4.6 mph - N/A   Clear
10:20 AM 73.4 °F - 55.4 °F 53% 30.33 in - ENE 8.1 mph - N/A   Clear
10:50 AM 75.2 °F - 55.4 °F 50% 30.33 in - ENE 8.1 mph - N/A   Clear
11:20 AM 77.0 °F - 55.4 °F 47% 30.33 in - ENE 8.1 mph - N/A   Clear
11:50 AM 77.0 °F - 55.4 °F 47% 30.33 in - ENE 8.1 mph - N/A   Clear
12:20 PM 78.8 °F - 57.2 °F 47% 30.33 in - ENE 8.1 mph - N/A   Clear
12:50 PM 78.8 °F - 57.2 °F 47% 30.30 in - East 9.2 mph - N/A   Clear
1:20 PM 80.6 °F 80.5 °F 55.4 °F 42% 30.30 in - East 10.4 mph - N/A   Clear
1:50 PM 82.4 °F 82.0 °F 57.2 °F 42% 30.30 in - ESE 9.2 mph - N/A   Clear
2:20 PM 82.4 °F 82.0 °F 57.2 °F 42% 30.30 in - East 11.5 mph - N/A   Clear
2:50 PM 82.4 °F 82.0 °F 57.2 °F 42% 30.30 in - East 11.5 mph - N/A   Clear
3:20 PM 82.4 °F 82.0 °F 57.2 °F 42% 30.30 in - East 11.5 mph - N/A   Clear
3:50 PM 82.4 °F 82.0 °F 57.2 °F 42% 30.27 in - East 11.5 mph - N/A   Clear
4:20 PM 82.4 °F 82.0 °F 57.2 °F 42% 30.27 in - East 11.5 mph - N/A   Clear
4:50 PM 80.6 °F 80.8 °F 57.2 °F 45% 30.27 in - East 12.7 mph - N/A   Clear
5:50 PM 80.6 °F 81.1 °F 59.0 °F 48% 30.27 in - East 13.8 mph - N/A   Clear
6:20 PM 80.6 °F 80.8 °F 57.2 °F 45% 30.27 in - East 15.0 mph - N/A   Clear
6:50 PM 78.8 °F - 57.2 °F 47% 30.27 in - East 12.7 mph - N/A   Clear
7:20 PM 77.0 °F - 57.2 °F 50% 30.27 in - ESE 12.7 mph - N/A   Clear
7:50 PM 77.0 °F - 57.2 °F 50% 30.27 in - East 8.1 mph - N/A   Clear
8:20 PM 73.4 °F - 57.2 °F 57% 30.27 in - East 10.4 mph - N/A   Clear
8:50 PM 71.6 °F - 57.2 °F 60% 30.27 in - East 9.2 mph - N/A   Clear
9:20 PM 69.8 °F - 57.2 °F 64% 30.27 in - East 9.2 mph - N/A   Clear
9:50 PM 68.0 °F - 59.0 °F 73% 30.30 in - East 10.4 mph - N/A   Clear
10:20 PM 66.2 °F - 59.0 °F 78% 30.30 in - ENE 12.7 mph - N/A   Clear
10:50 PM 64.4 °F - 59.0 °F 83% 30.30 in - ENE 11.5 mph - N/A   Clear
11:20 PM 64.4 °F - 59.0 °F 83% 30.33 in - ENE 11.5 mph - N/A   Clear
11:50 PM 64.4 °F - 59.0 °F 83% 30.33 in - ENE 10.4 mph - N/A   Clear